,,Stat6,,Stat2,,Stat8,,Stat9,,Stat10,,Wind1,,Wind1,
time,status,PA1M_AVG,status,PR1M_SUM,status,RH1M_AVG,status,SR1M_AVG,status,TA1M_AVG,status,W1dAve1m,status,W1sAve1m,
2004-09-26, 00:00:00,VALID,918.243,VALID,0,VALID,100,VALID,0.0339617,VALID,19.8083,VALID,69,VALID,0.0758168,
2004-09-26, 00:01:00,VALID,918.22,VALID,0,VALID,100,VALID,0.0509425,VALID,19.7954,VALID,77,VALID,0.141927,
2004-09-26, 00:02:00,VALID,918.202,VALID,0,VALID,100,VALID,0.0509425,VALID,19.776,VALID,77,VALID,0,
2004-09-26, 00:03:00,VALID,918.169,VALID,0,VALID,100,VALID,0,VALID,19.7762,VALID,77,VALID,0,
2004-09-26, 00:04:00,VALID,918.158,VALID,0,VALID,100,VALID,0.0509425,VALID,19.7921,VALID,71,VALID,0,
2004-09-26, 00:05:00,VALID,918.154,VALID,0,VALID,100,VALID,0.0339617,VALID,19.8279,VALID,51,VALID,0.0450149,
2004-09-26, 00:06:00,VALID,918.133,VALID,0,VALID,100,VALID,0.0169808,VALID,19.8376,VALID,24,VALID,0.357812,
2004-09-26, 00:07:00,VALID,918.124,VALID,0,VALID,100,VALID,0.0339617,VALID,19.8306,VALID,18,VALID,0.511265,
2004-09-26, 00:08:00,VALID,918.117,VALID,0,VALID,100,VALID,0.0509425,VALID,19.8212,VALID,18,VALID,0.545541,
2004-09-26, 00:09:00,VALID,918.118,VALID,0,VALID,100,VALID,0.0339617,VALID,19.8021,VALID,18,VALID,0.257635,
2004-09-26, 00:10:00,VALID,918.107,VALID,0,VALID,100,VALID,0.0509425,VALID,19.7785,VALID,14,VALID,0.136819,
2004-09-26, 00:11:00,VALID,918.107,VALID,0,VALID,100,VALID,-0.0509425,VALID,19.7546,VALID,348,VALID,0.426054,
2004-09-26, 00:12:00,VALID,918.101,VALID,0,VALID,100,VALID,-0.0679233,VALID,19.7425,VALID,330,VALID,0.205664,
2004-09-26, 00:13:00,VALID,918.113,VALID,0,VALID,100,VALID,-0.0849042,VALID,19.7325,VALID,330,VALID,0.0537348,
2004-09-26, 00:14:00,VALID,918.101,VALID,0,VALID,100,VALID,-0.0849042,VALID,19.7489,VALID,331,VALID,0,
2004-09-26, 00:15:00,VALID,918.108,VALID,0,VALID,100,VALID,-0.0849042,VALID,19.7551,VALID,331,VALID,0.00120192,
2004-09-26, 00:16:00,VALID,918.109,VALID,0,VALID,100,VALID,-0.101885,VALID,19.7683,VALID,331,VALID,0,
2004-09-26, 00:17:00,VALID,918.091,VALID,0,VALID,100,VALID,-0.101885,VALID,19.7651,VALID,331,VALID,0,
2004-09-26, 00:18:00,VALID,918.085,VALID,0,VALID,100,VALID,-0.0679233,VALID,19.7844,VALID,331,VALID,0,
2004-09-26, 00:19:00,VALID,918.061,VALID,0,VALID,100,VALID,-0.0679233,VALID,19.7422,VALID,331,VALID,0.268532,
2004-09-26, 00:20:00,VALID,918.04,VALID,0,VALID,100,VALID,-0.0849042,VALID,19.7454,VALID,331,VALID,0.164236,
2004-09-26, 00:21:00,VALID,918.016,VALID,0,VALID,100,VALID,-0.101885,VALID,19.7745,VALID,331,VALID,0.0303199,
2004-09-26, 00:22:00,VALID,918.004,VALID,0,VALID,100,VALID,-0.0849042,VALID,19.7651,VALID,331,VALID,0,
2004-09-26, 00:23:00,VALID,917.993,VALID,0,VALID,100,VALID,-0.101885,VALID,19.7748,VALID,331,VALID,0,
2004-09-26, 00:24:00,VALID,917.977,VALID,0,VALID,100,VALID,-0.0339617,VALID,19.774,VALID,331,VALID,0,
2004-09-26, 00:25:00,VALID,917.964,VALID,0,VALID,100,VALID,-0.0169808,VALID,19.771,VALID,331,VALID,0,
2004-09-26, 00:26:00,VALID,917.946,VALID,0,VALID,100,VALID,-0.0849042,VALID,19.771,VALID,331,VALID,0,
2004-09-26, 00:27:00,VALID,917.945,VALID,0,VALID,100,VALID,-0.0679233,VALID,19.7812,VALID,331,VALID,0,
2004-09-26, 00:28:00,VALID,917.927,VALID,0,VALID,100,VALID,-0.101885,VALID,19.7879,VALID,331,VALID,0,
2004-09-26, 00:29:00,VALID,917.916,VALID,0,VALID,100,VALID,-0.0849042,VALID,19.8073,VALID,331,VALID,0,
2004-09-26, 00:30:00,VALID,917.896,VALID,0,VALID,100,VALID,-0.0679233,VALID,19.8068,VALID,331,VALID,0,
2004-09-26, 00:31:00,VALID,917.883,VALID,0,VALID,100,VALID,-0.0679233,VALID,19.7902,VALID,331,VALID,0,
2004-09-26, 00:32:00,VALID,917.859,VALID,0,VALID,100,VALID,-0.0849042,VALID,19.7971,VALID,331,VALID,0,
2004-09-26, 00:33:00,VALID,917.837,VALID,0,VALID,100,VALID,-0.0849042,VALID,19.7941,VALID,331,VALID,0,
2004-09-26, 00:34:00,VALID,917.803,VALID,0,VALID,100,VALID,-0.0679233,VALID,19.7812,VALID,331,VALID,0,
2004-09-26, 00:35:00,VALID,917.777,VALID,0,VALID,100,VALID,-0.0679233,VALID,19.7584,VALID,331,VALID,0,
2004-09-26, 00:36:00,VALID,917.765,VALID,0,VALID,100,VALID,-0.101885,VALID,19.7618,VALID,331,VALID,0,
2004-09-26, 00:37:00,VALID,917.753,VALID,0,VALID,100,VALID,-0.101885,VALID,19.7584,VALID,336,VALID,0.0930233,
2004-09-26, 00:38:00,VALID,917.734,VALID,0,VALID,100,VALID,-0.0679233,VALID,19.7715,VALID,6,VALID,0.390803,
2004-09-26, 00:39:00,VALID,917.737,VALID,0,VALID,100,VALID,-0.101885,VALID,19.7748,VALID,10,VALID,0.327381,
2004-09-26, 00:40:00,VALID,917.737,VALID,0,VALID,100,VALID,-0.0679233,VALID,19.7715,VALID,17,VALID,0.376334,
2004-09-26, 00:41:00,VALID,917.743,VALID,0,VALID,100,VALID,0,VALID,19.7469,VALID,19,VALID,0.30506,
2004-09-26, 00:42:00,VALID,917.741,VALID,0,VALID,100,VALID,0.0339617,VALID,19.7472,VALID,25,VALID,0.656851,
2004-09-26, 00:43:00,VALID,917.735,VALID,0,VALID,100,VALID,0.0169808,VALID,19.7405,VALID,22,VALID,0.583519,
2004-09-26, 00:44:00,VALID,917.725,VALID,0,VALID,100,VALID,0.0169808,VALID,19.7181,VALID,24,VALID,0.307813,
2004-09-26, 00:45:00,VALID,917.714,VALID,0.2,VALID,100,VALID,0,VALID,19.7246,VALID,25,VALID,0.276344,
2004-09-26, 00:46:00,VALID,917.693,VALID,0,VALID,100,VALID,0,VALID,19.734,VALID,25,VALID,0.0330256,
2004-09-26, 00:47:00,VALID,917.695,VALID,0,VALID,100,VALID,0.0509425,VALID,19.7502,VALID,25,VALID,0.0671165,
2004-09-26, 00:48:00,VALID,917.67,VALID,0,VALID,100,VALID,0.0169808,VALID,19.7509,VALID,23,VALID,0.0378736,
2004-09-26, 00:49:00,VALID,917.65,VALID,0,VALID,100,VALID,0.0339617,VALID,19.7146,VALID,23,VALID,0.0417969,
2004-09-26, 00:50:00,VALID,917.634,VALID,0,VALID,100,VALID,0,VALID,19.7084,VALID,23,VALID,0,
2004-09-26, 00:51:00,VALID,917.61,VALID,0,VALID,100,VALID,0,VALID,19.6955,VALID,23,VALID,0,
2004-09-26, 00:52:00,VALID,917.596,VALID,0,VALID,100,VALID,0.0169808,VALID,19.7089,VALID,23,VALID,0.0106534,
2004-09-26, 00:53:00,VALID,917.575,VALID,0,VALID,100,VALID,0.0169808,VALID,19.7022,VALID,23,VALID,0.0763672,
2004-09-26, 00:54:00,VALID,917.554,VALID,0,VALID,100,VALID,0.0339617,VALID,19.6948,VALID,23,VALID,0.124645,
2004-09-26, 00:55:00,VALID,917.544,VALID,0,VALID,100,VALID,0.0339617,VALID,19.7017,VALID,23,VALID,0.0924782,
2004-09-26, 00:56:00,VALID,917.528,VALID,0,VALID,100,VALID,-0.0679233,VALID,19.7127,VALID,24,VALID,0.0557776,
2004-09-26, 00:57:00,VALID,917.516,VALID,0,VALID,100,VALID,-0.0679233,VALID,19.7129,VALID,24,VALID,0.145894,
2004-09-26, 00:58:00,VALID,917.516,VALID,0,VALID,100,VALID,-0.0849042,VALID,19.7099,VALID,25,VALID,0.121366,
2004-09-26, 00:59:00,VALID,917.531,VALID,0,VALID,100,VALID,-0.0509425,VALID,19.7201,VALID,25,VALID,0,
2004-09-26, 01:00:00,VALID,917.533,VALID,0,VALID,100,VALID,-0.0679233,VALID,19.7288,VALID,25,VALID,0,
2004-09-26, 01:01:00,VALID,917.531,VALID,0,VALID,100,VALID,-0.0679233,VALID,19.7425,VALID,25,VALID,0,
2004-09-26, 01:02:00,VALID,917.527,VALID,0,VALID,100,VALID,-0.101885,VALID,19.7363,VALID,25,VALID,0,
2004-09-26, 01:03:00,VALID,917.521,VALID,0,VALID,100,VALID,-0.0509425,VALID,19.7293,VALID,25,VALID,0,
2004-09-26, 01:04:00,VALID,917.508,VALID,0,VALID,100,VALID,-0.0509425,VALID,19.7323,VALID,25,VALID,0,
2004-09-26, 01:05:00,VALID,917.501,VALID,0,VALID,100,VALID,-0.0679233,VALID,19.7551,VALID,25,VALID,0,
2004-09-26, 01:06:00,VALID,917.468,VALID,0,VALID,100,VALID,-0.0339617,VALID,19.7425,VALID,43,VALID,0.0970204,
2004-09-26, 01:07:00,VALID,917.453,VALID,0,VALID,100,VALID,-0.0509425,VALID,19.7392,VALID,51,VALID,0.0492188,
2004-09-26, 01:08:00,VALID,917.433,VALID,0,VALID,100,VALID,-0.0509425,VALID,19.7132,VALID,60,VALID,0.13681,
2004-09-26, 01:09:00,VALID,917.432,VALID,0,VALID,100,VALID,-0.101885,VALID,19.6968,VALID,87,VALID,0.196243,
2004-09-26, 01:10:00,VALID,917.422,VALID,0,VALID,100,VALID,-0.0679233,VALID,19.6938,VALID,111,VALID,0.366824,
2004-09-26, 01:11:00,VALID,917.417,VALID,0,VALID,100,VALID,-0.0849042,VALID,19.6908,VALID,119,VALID,0.345508,
2004-09-26, 01:12:00,VALID,917.4,VALID,0,VALID,100,VALID,-0.0849042,VALID,19.6876,VALID,125,VALID,0.12138,
2004-09-26, 01:13:00,VALID,917.402,VALID,0,VALID,100,VALID,-0.101885,VALID,19.6771,VALID,133,VALID,0.212843,
2004-09-26, 01:14:00,VALID,917.389,VALID,0,VALID,100,VALID,-0.0509425,VALID,19.6938,VALID,139,VALID,0.17378,
2004-09-26, 01:15:00,VALID,917.372,VALID,0,VALID,100,VALID,-0.0849042,VALID,19.694,VALID,139,VALID,0.241279,
2004-09-26, 01:16:00,VALID,917.338,VALID,0,VALID,100,VALID,-0.0339617,VALID,19.7,VALID,138,VALID,0.169389,
2004-09-26, 01:17:00,VALID,917.312,VALID,0,VALID,100,VALID,-0.0849042,VALID,19.7002,VALID,141,VALID,0.031994,
2004-09-26, 01:18:00,VALID,917.284,VALID,0,VALID,100,VALID,-0.0679233,VALID,19.6943,VALID,141,VALID,0.0944767,
2004-09-26, 01:19:00,VALID,917.258,VALID,0,VALID,100,VALID,-0.0679233,VALID,19.6809,VALID,136,VALID,0.0603198,
2004-09-26, 01:20:00,VALID,917.229,VALID,0,VALID,100,VALID,-0.0679233,VALID,19.6938,VALID,135,VALID,0.000694444,
2004-09-26, 01:21:00,VALID,917.214,VALID,0,VALID,100,VALID,-0.0679233,VALID,19.6841,VALID,131,VALID,0.0987847,
2004-09-26, 01:22:00,VALID,917.21,VALID,0,VALID,100,VALID,-0.0849042,VALID,19.704,VALID,120,VALID,0,
2004-09-26, 01:23:00,VALID,917.2,VALID,0,VALID,100,VALID,-0.0679233,VALID,19.7104,VALID,120,VALID,0,
2004-09-26, 01:24:00,VALID,917.212,VALID,0,VALID,100,VALID,-0.0849042,VALID,19.7002,VALID,136,VALID,0.171494,
2004-09-26, 01:25:00,VALID,917.192,VALID,0,VALID,100,VALID,-0.0509425,VALID,19.7002,VALID,156,VALID,0.400343,
2004-09-26, 01:26:00,VALID,917.181,VALID,0,VALID,100,VALID,-0.0169808,VALID,19.7052,VALID,140,VALID,0.578497,
2004-09-26, 01:27:00,VALID,917.167,VALID,0,VALID,100,VALID,0.0169808,VALID,19.7151,VALID,146,VALID,0.523996,
2004-09-26, 01:28:00,VALID,917.156,VALID,0,VALID,100,VALID,0.0169808,VALID,19.7218,VALID,144,VALID,0.530134,
2004-09-26, 01:29:00,VALID,917.15,VALID,0,VALID,100,VALID,0.0169808,VALID,19.6982,VALID,151,VALID,0.924132,
2004-09-26, 01:30:00,VALID,917.131,VALID,0,VALID,100,VALID,0.0169808,VALID,19.7117,VALID,145,VALID,0.488758,
2004-09-26, 01:31:00,VALID,917.115,VALID,0,VALID,100,VALID,0.101885,VALID,19.7079,VALID,170,VALID,0.775436,
2004-09-26, 01:32:00,VALID,917.089,VALID,0,VALID,100,VALID,0,VALID,19.7119,VALID,174,VALID,0.717797,
2004-09-26, 01:33:00,VALID,917.095,VALID,0,VALID,100,VALID,0.101885,VALID,19.7117,VALID,165,VALID,0.493118,
2004-09-26, 01:34:00,VALID,917.083,VALID,0,VALID,100,VALID,0.0339617,VALID,19.6955,VALID,166,VALID,0.446378,
2004-09-26, 01:35:00,VALID,917.085,VALID,0,VALID,100,VALID,0.0169808,VALID,19.6888,VALID,168,VALID,0.290179,
2004-09-26, 01:36:00,VALID,917.091,VALID,0,VALID,100,VALID,0.0169808,VALID,19.692,VALID,159,VALID,0.356771,
2004-09-26, 01:37:00,VALID,917.076,VALID,0,VALID,100,VALID,0.0509425,VALID,19.6824,VALID,155,VALID,0.394159,
2004-09-26, 01:38:00,VALID,917.077,VALID,0,VALID,100,VALID,0.0849042,VALID,19.6881,VALID,164,VALID,0.178199,
2004-09-26, 01:39:00,VALID,917.076,VALID,0,VALID,100,VALID,0.0849042,VALID,19.6915,VALID,165,VALID,0.221294,
2004-09-26, 01:40:00,VALID,917.052,VALID,0,VALID,100,VALID,0.101885,VALID,19.7017,VALID,165,VALID,0.266026,
2004-09-26, 01:41:00,VALID,917.023,VALID,0,VALID,100,VALID,0.0509425,VALID,19.7119,VALID,165,VALID,0.291061,
2004-09-26, 01:42:00,VALID,916.995,VALID,0,VALID,100,VALID,0,VALID,19.7218,VALID,163,VALID,0.0995593,
2004-09-26, 01:43:00,VALID,916.952,VALID,0,VALID,100,VALID,0.0339617,VALID,19.7281,VALID,177,VALID,0.403392,
2004-09-26, 01:44:00,VALID,916.911,VALID,0,VALID,100,VALID,0,VALID,19.7218,VALID,188,VALID,0.0348011,
2004-09-26, 01:45:00,VALID,916.883,VALID,0,VALID,100,VALID,0,VALID,19.7415,VALID,179,VALID,0.108373,
2004-09-26, 01:46:00,VALID,916.851,VALID,0,VALID,100,VALID,0,VALID,19.7216,VALID,177,VALID,0.0133929,
2004-09-26, 01:47:00,VALID,916.843,VALID,0,VALID,100,VALID,0,VALID,19.7184,VALID,177,VALID,0,
2004-09-26, 01:48:00,VALID,916.827,VALID,0,VALID,100,VALID,-0.0169808,VALID,19.7216,VALID,177,VALID,0.0267078,
2004-09-26, 01:49:00,VALID,916.826,VALID,0,VALID,100,VALID,0,VALID,19.7248,VALID,177,VALID,0,
2004-09-26, 01:50:00,VALID,916.83,VALID,0,VALID,100,VALID,0,VALID,19.7151,VALID,177,VALID,0.00111607,
2004-09-26, 01:51:00,VALID,916.826,VALID,0,VALID,100,VALID,0.0169808,VALID,19.7089,VALID,177,VALID,0,
2004-09-26, 01:52:00,VALID,916.818,VALID,0,VALID,100,VALID,-0.0169808,VALID,19.699,VALID,177,VALID,0,
2004-09-26, 01:53:00,VALID,916.826,VALID,0,VALID,100,VALID,0.0339617,VALID,19.7055,VALID,177,VALID,0,
2004-09-26, 01:54:00,VALID,916.834,VALID,0,VALID,100,VALID,0,VALID,19.7184,VALID,177,VALID,0,
2004-09-26, 01:55:00,VALID,916.841,VALID,0,VALID,100,VALID,0,VALID,19.7186,VALID,177,VALID,0,
2004-09-26, 01:56:00,VALID,916.843,VALID,0,VALID,100,VALID,0,VALID,19.7194,VALID,177,VALID,0,
2004-09-26, 01:57:00,VALID,916.836,VALID,0,VALID,100,VALID,0,VALID,19.7216,VALID,177,VALID,0,
2004-09-26, 01:58:00,VALID,916.845,VALID,0,VALID,100,VALID,0.0339617,VALID,19.7184,VALID,177,VALID,0,
2004-09-26, 01:59:00,VALID,916.842,VALID,0,VALID,100,VALID,0.0339617,VALID,19.7251,VALID,177,VALID,0,
2004-09-26, 02:00:00,VALID,916.831,VALID,0,VALID,100,VALID,0,VALID,19.7122,VALID,177,VALID,0,
2004-09-26, 02:01:00,VALID,916.823,VALID,0,VALID,100,VALID,0,VALID,19.732,VALID,177,VALID,0,
2004-09-26, 02:02:00,VALID,916.803,VALID,0,VALID,100,VALID,0,VALID,19.7258,VALID,177,VALID,0,
2004-09-26, 02:03:00,VALID,916.798,VALID,0,VALID,100,VALID,0.0169808,VALID,19.7253,VALID,177,VALID,0,
2004-09-26, 02:04:00,VALID,916.787,VALID,0,VALID,100,VALID,0,VALID,19.7218,VALID,177,VALID,0,
2004-09-26, 02:05:00,VALID,916.787,VALID,0,VALID,100,VALID,0.0509425,VALID,19.7216,VALID,177,VALID,0,
2004-09-26, 02:06:00,VALID,916.766,VALID,0,VALID,100,VALID,0.0339617,VALID,19.6953,VALID,177,VALID,0,
2004-09-26, 02:07:00,VALID,916.772,VALID,0,VALID,100,VALID,0.0169808,VALID,19.7092,VALID,177,VALID,0,
2004-09-26, 02:08:00,VALID,916.755,VALID,0,VALID,100,VALID,0,VALID,19.7062,VALID,177,VALID,0.03125,
2004-09-26, 02:09:00,VALID,916.759,VALID,0,VALID,100,VALID,0,VALID,19.693,VALID,177,VALID,0.0572311,
2004-09-26, 02:10:00,VALID,916.764,VALID,0,VALID,100,VALID,0,VALID,19.6833,VALID,177,VALID,0.00114329,
2004-09-26, 02:11:00,VALID,916.76,VALID,0,VALID,100,VALID,-0.0849042,VALID,19.6973,VALID,177,VALID,0.0113467,
2004-09-26, 02:12:00,VALID,916.741,VALID,0,VALID,100,VALID,-0.101885,VALID,19.6779,VALID,177,VALID,0.000585938,
2004-09-26, 02:13:00,VALID,916.746,VALID,0,VALID,100,VALID,-0.0849042,VALID,19.6913,VALID,109,VALID,0.17691,
2004-09-26, 02:14:00,VALID,916.745,VALID,0,VALID,100,VALID,-0.101885,VALID,19.6749,VALID,32,VALID,0,
2004-09-26, 02:15:00,VALID,916.749,VALID,0,VALID,100,VALID,-0.0849042,VALID,19.6622,VALID,32,VALID,0,
2004-09-26, 02:16:00,VALID,916.754,VALID,0,VALID,100,VALID,-0.101885,VALID,19.6294,VALID,32,VALID,0,
2004-09-26, 02:17:00,VALID,916.744,VALID,0,VALID,100,VALID,-0.101885,VALID,19.6361,VALID,38,VALID,0,
2004-09-26, 02:18:00,VALID,916.739,VALID,0,VALID,100,VALID,-0.101885,VALID,19.6461,VALID,45,VALID,0,
2004-09-26, 02:19:00,VALID,916.744,VALID,0,VALID,100,VALID,-0.101885,VALID,19.6426,VALID,45,VALID,0,
2004-09-26, 02:20:00,VALID,916.742,VALID,0,VALID,100,VALID,-0.101885,VALID,19.6391,VALID,45,VALID,0,
2004-09-26, 02:21:00,VALID,916.737,VALID,0,VALID,100,VALID,-0.101885,VALID,19.6332,VALID,45,VALID,0,
2004-09-26, 02:22:00,VALID,916.745,VALID,0,VALID,100,VALID,-0.101885,VALID,19.6133,VALID,45,VALID,0,
2004-09-26, 02:23:00,VALID,916.74,VALID,0,VALID,100,VALID,-0.101885,VALID,19.6103,VALID,48,VALID,0,
2004-09-26, 02:24:00,VALID,916.742,VALID,0,VALID,100,VALID,-0.0849042,VALID,19.6038,VALID,55,VALID,0,
2004-09-26, 02:25:00,VALID,916.75,VALID,0,VALID,100,VALID,-0.101885,VALID,19.6071,VALID,55,VALID,0,
2004-09-26, 02:26:00,VALID,916.749,VALID,0,VALID,100,VALID,-0.0169808,VALID,19.6093,VALID,55,VALID,0,
2004-09-26, 02:27:00,VALID,916.74,VALID,0,VALID,100,VALID,0.0169808,VALID,19.6155,VALID,55,VALID,0,
2004-09-26, 02:28:00,VALID,916.741,VALID,0,VALID,100,VALID,0,VALID,19.6056,VALID,55,VALID,0,
2004-09-26, 02:29:00,VALID,916.736,VALID,0,VALID,100,VALID,0,VALID,19.6183,VALID,55,VALID,0,
2004-09-26, 02:30:00,VALID,916.737,VALID,0,VALID,100,VALID,-0.0169808,VALID,19.6411,VALID,55,VALID,0,
2004-09-26, 02:31:00,VALID,916.724,VALID,0,VALID,100,VALID,0,VALID,19.6414,VALID,55,VALID,0,
2004-09-26, 02:32:00,VALID,916.713,VALID,0,VALID,100,VALID,0,VALID,19.6349,VALID,56,VALID,0,
2004-09-26, 02:33:00,VALID,916.691,VALID,0,VALID,100,VALID,0,VALID,19.6121,VALID,60,VALID,0.0901042,
2004-09-26, 02:34:00,VALID,916.673,VALID,0,VALID,100,VALID,0,VALID,19.5929,VALID,66,VALID,0.0483994,
2004-09-26, 02:35:00,VALID,916.649,VALID,0,VALID,100,VALID,0.0169808,VALID,19.5793,VALID,66,VALID,0.204514,
2004-09-26, 02:36:00,VALID,916.624,VALID,0,VALID,100,VALID,0,VALID,19.5736,VALID,66,VALID,0.0172602,
2004-09-26, 02:37:00,VALID,916.603,VALID,0,VALID,100,VALID,0,VALID,19.5733,VALID,66,VALID,0,
2004-09-26, 02:38:00,VALID,916.595,VALID,0,VALID,100,VALID,0,VALID,19.5894,VALID,66,VALID,0,
2004-09-26, 02:39:00,VALID,916.574,VALID,0,VALID,100,VALID,0,VALID,19.6031,VALID,66,VALID,0.364453,
2004-09-26, 02:40:00,VALID,916.563,VALID,0,VALID,100,VALID,0.0169808,VALID,19.589,VALID,66,VALID,0.261347,
2004-09-26, 02:41:00,VALID,916.553,VALID,0,VALID,100,VALID,0,VALID,19.5969,VALID,41,VALID,0.102805,
2004-09-26, 02:42:00,VALID,916.543,VALID,0,VALID,100,VALID,-0.0339617,VALID,19.6001,VALID,37,VALID,0.00659722,
2004-09-26, 02:43:00,VALID,916.537,VALID,0,VALID,100,VALID,-0.0169808,VALID,19.5964,VALID,46,VALID,0,
2004-09-26, 02:44:00,VALID,916.527,VALID,0,VALID,100,VALID,-0.0169808,VALID,19.5932,VALID,46,VALID,0.0438988,
2004-09-26, 02:45:00,VALID,916.533,VALID,0,VALID,100,VALID,-0.0339617,VALID,19.6098,VALID,46,VALID,0.0814986,
2004-09-26, 02:46:00,VALID,916.531,VALID,0,VALID,100,VALID,-0.0339617,VALID,19.6066,VALID,46,VALID,0,
2004-09-26, 02:47:00,VALID,916.535,VALID,0,VALID,100,VALID,-0.0169808,VALID,19.5932,VALID,46,VALID,0,
2004-09-26, 02:48:00,VALID,916.539,VALID,0,VALID,100,VALID,-0.0509425,VALID,19.5934,VALID,46,VALID,0,
2004-09-26, 02:49:00,VALID,916.529,VALID,0,VALID,100,VALID,0,VALID,19.5899,VALID,46,VALID,0,
2004-09-26, 02:50:00,VALID,916.52,VALID,0,VALID,100,VALID,-0.0339617,VALID,19.5999,VALID,46,VALID,0,
2004-09-26, 02:51:00,VALID,916.521,VALID,0,VALID,100,VALID,-0.0339617,VALID,19.6165,VALID,46,VALID,0,
2004-09-26, 02:52:00,VALID,916.534,VALID,0,VALID,100,VALID,-0.0509425,VALID,19.6227,VALID,46,VALID,0,
2004-09-26, 02:53:00,VALID,916.535,VALID,0,VALID,100,VALID,-0.0509425,VALID,19.6165,VALID,46,VALID,0,
2004-09-26, 02:54:00,VALID,916.543,VALID,0,VALID,100,VALID,-0.0509425,VALID,19.6193,VALID,46,VALID,0,
2004-09-26, 02:55:00,VALID,916.552,VALID,0,VALID,100,VALID,-0.0169808,VALID,19.6195,VALID,46,VALID,0,
2004-09-26, 02:56:00,VALID,916.555,VALID,0,VALID,100,VALID,-0.0339617,VALID,19.6091,VALID,46,VALID,0,
2004-09-26, 02:57:00,VALID,916.563,VALID,0,VALID,100,VALID,-0.0169808,VALID,19.6197,VALID,46,VALID,0,
2004-09-26, 02:58:00,VALID,916.559,VALID,0,VALID,100,VALID,-0.0679233,VALID,19.6034,VALID,46,VALID,0,
2004-09-26, 02:59:00,VALID,916.565,VALID,0,VALID,100,VALID,-0.0849042,VALID,19.6009,VALID,46,VALID,0,
2004-09-26, 03:00:00,VALID,916.562,VALID,0,VALID,100,VALID,-0.0849042,VALID,19.5845,VALID,46,VALID,0,
2004-09-26, 03:01:00,VALID,916.555,VALID,0,VALID,100,VALID,-0.0679233,VALID,19.5713,VALID,46,VALID,0,
2004-09-26, 03:02:00,VALID,916.548,VALID,0,VALID,100,VALID,-0.0679233,VALID,19.5482,VALID,46,VALID,0,
2004-09-26, 03:03:00,VALID,916.534,VALID,0,VALID,100,VALID,-0.0169808,VALID,19.542,VALID,46,VALID,0,
2004-09-26, 03:04:00,VALID,916.524,VALID,0,VALID,100,VALID,-0.0169808,VALID,19.5323,VALID,46,VALID,0,
2004-09-26, 03:05:00,VALID,916.506,VALID,0,VALID,100,VALID,-0.0509425,VALID,19.5328,VALID,46,VALID,0,
2004-09-26, 03:06:00,VALID,916.488,VALID,0,VALID,100,VALID,-0.0339617,VALID,19.5,VALID,46,VALID,0,
2004-09-26, 03:07:00,VALID,916.462,VALID,0,VALID,100,VALID,-0.0339617,VALID,19.4938,VALID,46,VALID,0,
2004-09-26, 03:08:00,VALID,916.46,VALID,0,VALID,100,VALID,-0.0679233,VALID,19.4774,VALID,47,VALID,0,
2004-09-26, 03:09:00,VALID,916.448,VALID,0,VALID,100,VALID,-0.0679233,VALID,19.4647,VALID,48,VALID,0,
2004-09-26, 03:10:00,VALID,916.438,VALID,0,VALID,100,VALID,-0.0169808,VALID,19.4744,VALID,51,VALID,0.00853924,
2004-09-26, 03:11:00,VALID,916.437,VALID,0,VALID,100,VALID,-0.0169808,VALID,19.4647,VALID,67,VALID,0.340732,
2004-09-26, 03:12:00,VALID,916.429,VALID,0,VALID,100,VALID,-0.0339617,VALID,19.4585,VALID,70,VALID,0.346726,
2004-09-26, 03:13:00,VALID,916.425,VALID,0,VALID,100,VALID,-0.0509425,VALID,19.4546,VALID,66,VALID,0.348611,
2004-09-26, 03:14:00,VALID,916.424,VALID,0,VALID,100,VALID,-0.0339617,VALID,19.4352,VALID,66,VALID,0.513849,
2004-09-26, 03:15:00,VALID,916.421,VALID,0,VALID,100,VALID,-0.0169808,VALID,19.4387,VALID,52,VALID,0.478824,
2004-09-26, 03:16:00,VALID,916.428,VALID,0,VALID,100,VALID,-0.0339617,VALID,19.4257,VALID,45,VALID,0.340199,
2004-09-26, 03:17:00,VALID,916.418,VALID,0,VALID,100,VALID,0,VALID,19.4253,VALID,62,VALID,0.688953,
2004-09-26, 03:18:00,VALID,916.423,VALID,0,VALID,100,VALID,-0.0509425,VALID,19.419,VALID,69,VALID,0.560505,
2004-09-26, 03:19:00,VALID,916.418,VALID,0,VALID,100,VALID,0,VALID,19.4255,VALID,74,VALID,0.24907,
2004-09-26, 03:20:00,VALID,916.422,VALID,0,VALID,100,VALID,-0.0339617,VALID,19.4225,VALID,74,VALID,0,
2004-09-26, 03:21:00,VALID,916.41,VALID,0,VALID,100,VALID,-0.0339617,VALID,19.4292,VALID,74,VALID,0.0948153,
2004-09-26, 03:22:00,VALID,916.401,VALID,0,VALID,100,VALID,-0.0849042,VALID,19.4327,VALID,74,VALID,0.369496,
2004-09-26, 03:23:00,VALID,916.382,VALID,0,VALID,100,VALID,-0.0849042,VALID,19.4193,VALID,73,VALID,0.0269717,
2004-09-26, 03:24:00,VALID,916.363,VALID,0,VALID,100,VALID,-0.0509425,VALID,19.4459,VALID,65,VALID,0,
2004-09-26, 03:25:00,VALID,916.344,VALID,0,VALID,100,VALID,-0.0339617,VALID,19.4421,VALID,65,VALID,0,
2004-09-26, 03:26:00,VALID,916.346,VALID,0,VALID,100,VALID,-0.0339617,VALID,19.432,VALID,65,VALID,0,
2004-09-26, 03:27:00,VALID,916.346,VALID,0,VALID,100,VALID,-0.0169808,VALID,19.4484,VALID,65,VALID,0,
2004-09-26, 03:28:00,VALID,916.336,VALID,0,VALID,100,VALID,-0.0169808,VALID,19.4451,VALID,65,VALID,0,
2004-09-26, 03:29:00,VALID,916.349,VALID,0,VALID,100,VALID,-0.0509425,VALID,19.4322,VALID,65,VALID,0,
2004-09-26, 03:30:00,VALID,916.35,VALID,0,VALID,100,VALID,-0.0509425,VALID,19.4421,VALID,65,VALID,0,
2004-09-26, 03:31:00,VALID,916.359,VALID,0,VALID,100,VALID,-0.0169808,VALID,19.4551,VALID,65,VALID,0,
2004-09-26, 03:32:00,VALID,916.35,VALID,0,VALID,100,VALID,-0.0509425,VALID,19.4488,VALID,65,VALID,0.0229048,
2004-09-26, 03:33:00,VALID,916.353,VALID,0,VALID,100,VALID,-0.0339617,VALID,19.4193,VALID,65,VALID,0.198633,
2004-09-26, 03:34:00,VALID,916.36,VALID,0,VALID,100,VALID,-0.0339617,VALID,19.4074,VALID,65,VALID,0.176172,
2004-09-26, 03:35:00,VALID,916.357,VALID,0,VALID,100,VALID,-0.0339617,VALID,19.3773,VALID,67,VALID,0.226376,
2004-09-26, 03:36:00,VALID,916.362,VALID,0,VALID,100,VALID,-0.0339617,VALID,19.3582,VALID,70,VALID,0.00595238,
2004-09-26, 03:37:00,VALID,916.365,VALID,0,VALID,100,VALID,-0.0509425,VALID,19.3425,VALID,73,VALID,0.201527,
2004-09-26, 03:38:00,VALID,916.354,VALID,0,VALID,100,VALID,-0.0509425,VALID,19.3326,VALID,73,VALID,0.0277158,
2004-09-26, 03:39:00,VALID,916.353,VALID,0,VALID,100,VALID,-0.0339617,VALID,19.3291,VALID,84,VALID,0.00799006,
2004-09-26, 03:40:00,VALID,916.341,VALID,0,VALID,100,VALID,-0.0849042,VALID,19.3328,VALID,84,VALID,0,
2004-09-26, 03:41:00,VALID,916.331,VALID,0,VALID,100,VALID,-0.0339617,VALID,19.3291,VALID,84,VALID,0,
2004-09-26, 03:42:00,VALID,916.315,VALID,0,VALID,100,VALID,-0.0509425,VALID,19.3423,VALID,84,VALID,0,
2004-09-26, 03:43:00,VALID,916.301,VALID,0,VALID,100,VALID,-0.0509425,VALID,19.3296,VALID,84,VALID,0,
2004-09-26, 03:44:00,VALID,916.28,VALID,0,VALID,100,VALID,-0.0169808,VALID,19.3132,VALID,84,VALID,0,
2004-09-26, 03:45:00,VALID,916.284,VALID,0,VALID,100,VALID,-0.0679233,VALID,19.3296,VALID,84,VALID,0,